DELTA 1 DEB, 1529

Orbit data source: Space-Track

DELTA 1 DEB, 1529 is space debris in SSO originally from a launch on Fri, 02 Jul 1965 UTC launched from the Air Force Eastern Test Range (AFETR). Debris objects in space refer to the collection of defunct objects orbiting the Earth. Examples of debris include non-operational satellites, rocket bodies, and fragments generated from explosions, collisions, or faulty payload assembly.

Loading next visibility...
Identifier
1529, 1965-051D
Orbit
SSO
Last TLE update
17 hours ago
Origin
Manufacturer
Unknown
Mission
Spacecraft
Bus & Motor
Unknown
Mass
1 kg wet, 1 kg dry
Launch date (UTC)
1965-07-02 (60 years ago)
Launch vehicle
Unknown
Launch site
Air Force Eastern Test Range (AFETR)
Object type
Payload
Rocket body
Debris
Shape & HBR
Cyl + 1 Cable, 3.5 m
Radar Cross Section
3.500 m², Small (<0.1 m²)

Expand to show TLE details & history

TLE from 17 hours ago
0 DELTA 1 DEB
1  1529U 65051D   25133.56934499  .00000208  00000-0  11030-3 0  9995
2  1529  99.0400 358.1563 0035144 294.0876  65.6626 14.24044016 99167
Epoch: 2025-05-13T13:39Z
Definitive object data (Epoch: 2025-05-13T13:39:51.407Z)
Latitude
-0.00007°
Longitude
-78.37408°
Altitude
804.277 km
Speed
7.457 km/s
True Right ascension
23h 52m 37s
True Declination
0° 00' 00"
Sunlit
Object was in daylight at TLE epoch
Visualization TLE readout
Latitude
52.09435°
Longitude
114.10094°
Altitude
844.504 km
Speed
7.423 km/s
Apparent Right ascension
07h 41m 30s
Apparent Declination
24° 45' 19"
Sunlit
Object is in daylight
Visualization observer readout
Local Sidereal Time
15:36:06
Azimuth
306.999° NW
Elevation
-3.739°
Doppler factor
1
Orbital elements
Apogee altitude
834.136 km
Perigee altitude
783.62 km
Semi-major axis
7,187.015 km
Eccentricity
0.0035144
Inclination
99.04°
RAAN
358.1563°
Arg. of periapsis
294.0876°
True anomaly
66.0302°
Mean anomaly
65.6626°
Eccentric anomaly
65.84633°
Mean motion
3.56222 °/min
BSTAR
0.0001103
Orbital period
101.06 mins
Loading maneuver chart data...
Loading SW <> Apogee altitude chart data...
Loading historical data...
Loading historical data...
Loading historical data...
Loading historical data...
Loading historical data...
Loading historical data...
Loading historical data...
Other satellites on launch #51 in the year 1965 (1965-07-02 UTC)

DELTA 1 DEB Visibility forecast

Observer location: undefined°, undefined°

Span
Click to sort rows by Start time (UTC) header in descending order
Start Az.
Max El. time (UTC)
Max El. Az.
Max El.
End time (UTC)
End Az.
5 mins2025-05-14 13:27:26.498Z85.581° E2025-05-14 13:29:26.498Z60.753° ENE15.233°2025-05-14 13:32:26.498Z25.861° NE
8 mins2025-05-14 15:05:26.498Z177.604° S2025-05-14 15:08:26.498Z234.63° WSW43.022°2025-05-14 15:13:26.498Z340.444° N
9 mins2025-05-15 03:21:26.498Z31.726° NE2025-05-15 03:25:26.498Z99.387° ESE35.732°2025-05-15 03:30:26.498Z172.175° S
6 mins2025-05-15 05:02:26.498Z332.698° NNW2025-05-15 05:05:26.498Z288.369° WNW21.514°2025-05-15 05:08:26.498Z250.434° W
|